Regional Weather Roundup
Issued by NWS

Home | Current Version | Previous Version | Graphics & Text | Print | Product List | Glossary On
Versions: 1 2 3 4 5 6 7 8 9 10 11 12 13 14 15 16 17 18 19 20 21 22 23 24 25 26 27 28 29 30 31 32 33 34 35 36 37 38 39 40 41 42 43 44 45 46 47 48 49 50
587
ASUS45 KPSR 282310
RWRAZ

ARIZONA HOURLY REGIONAL WEATHER ROUNDUP
NATIONAL WEATHER SERVICE PHOENIX AZ
400 PM MST WED SEP 28 2016

NOTE: FAIR INDICATES FEW OR NO CLOUDS BELOW 12,000 FEET WITH NO
SIGNIFICANT WEATHER AND/OR OBSTRUCTIONS TO VISIBILITY.

AZZ001>003-036-290000-
NORTHWEST ARIZONA

CITY           SKY/WX    TMP DP  RH WIND       PRES   REMARKS
BULLHEAD CITY  SUNNY     93  50  22 CALM      29.88F
KINGMAN        MOSUNNY   83  46  27 SW8       30.06S
$$

AZZ004>008-015-016-018-290000-
NORTH CENTRAL ARIZONA

CITY           SKY/WX    TMP DP  RH WIND       PRES   REMARKS
GRAND CANYON   PTSUNNY   65  48  54 E10G18    30.29S
PRESCOTT       PTSUNNY   72  53  51 S8        30.18S
FLAGSTAFF      MOSUNNY   65  51  60 SW13      30.29F
PAYSON         PTSUNNY   75  48  38 S8G16     30.21S
PAGE           CLOUDY    79  45  29 S12       30.15F
$$

AZZ009>014-017-290000-
NORTHEAST ARIZONA

CITY           SKY/WX    TMP DP  RH WIND       PRES   REMARKS
WINSLOW        PTSUNNY   73  53  49 W10       30.18R THUNDER
SAINT JOHNS    PTSUNNY   74  45  35 CALM      30.23F
WINDOW ROCK    CLOUDY    72  40  31 S8        30.32F
SHOW LOW       PTSUNNY   68  41  37 SW13      30.29S
$$

AZZ023-290000-
GREATER PHOENIX AREA

CITY           SKY/WX    TMP DP  RH WIND       PRES   REMARKS
PHOENIX        PTSUNNY   95  54  25 SE6       29.89F
BUCKEYE        PTSUNNY   93  54  26 E3        29.91F
GLENDALE       PTSUNNY   95  52  23 E12G17    29.91F
LUKE AFB       MOSUNNY   95  53  23 SE10      29.88F
DEER VALLEY    MOSUNNY   93  52  24 S12       29.91F
SCOTTSDALE     MOSUNNY   92  53  26 S7        29.93F
MESA-GATEWAY   PTSUNNY   95  54  24 S12       29.92F
CHANDLER       PTSUNNY   95  54  24 S12       29.91F
$$

AZZ027-028-290000-
SOUTHWEST MARICOPA COUNTY AND PINAL COUNTY

CITY           SKY/WX    TMP DP  RH WIND       PRES   REMARKS
CASA GRANDE    PTSUNNY   93  55  27 SE7       29.95S
GILA BEND      MOSUNNY   95  51  22 SW12      29.86F
$$

AZZ503-504-507>509-290000-
SOUTHEAST ARIZONA

CITY           SKY/WX    TMP DP  RH WIND       PRES   REMARKS
TUCSON         CLOUDY    78  61  55 E6        30.05F
DAVIS-MONTHAN  PTSUNNY   79  63  57 SE5       30.05S
RYAN FIELD     SUNNY     82  59  44 E17G26    30.02R
NOGALES        CLOUDY    77  53  43 SE5       30.12F
SIERRA VISTA   CLOUDY    73  58  58 VRB3      30.20S
DOUGLAS        CLOUDY    78  55  44 CALM      30.15S
SAFFORD        CLOUDY    81  59  47 CALM      30.08S
$$

AZZ020-021-025-026-031-290000-
SOUTHWEST ARIZONA

CITY           SKY/WX    TMP DP  RH WIND       PRES   REMARKS
YUMA           MOSUNNY   95  48  20 SW6       29.84
$$

CAZ031-033-041-043-047-048-061-290000-
SOUTHERN CALIFORNIA

CITY           SKY/WX    TMP DP  RH WIND       PRES   REMARKS
DOWNTOWN L.A.  MOSUNNY   86  51  29 VRB5      29.87S
L.A. AIRPORT   MOSUNNY   82  46  28 W13       29.89F
SAN DIEGO      MOSUNNY   84  54  35 NW13      29.89S
BURBANK        MOSUNNY   90  48  23 S9        29.89S
ONTARIO        MOSUNNY   93  46  19 VRB7      29.88F
RIVERSIDE      PTSUNNY   94  46  19 E8        29.88F
PALM SPRINGS   PTSUNNY   94  47  20 SE7       29.88F
EL CENTRO NAS  MOSUNNY   96  48  19 S7        29.84F
IMPERIAL       MOSUNNY   98  53  22 SE7       29.82F
BLYTHE         SUNNY     95  51  22 VRB7      29.86F
NEEDLES          N/A     97  48  18 MISG      29.89F
$$

NVZ020-UTZ003-290000-
SOUTHERN NEVADA-UTAH

CITY           SKY/WX    TMP DP  RH WIND       PRES   REMARKS
LAS VEGAS      PTSUNNY   87  42  20 W13       29.98F
SALT LAKE CITY MOSUNNY   80  50  34 NW10      30.10F
$$

NMZ009-TXZ055-290000-
NEW MEXICO-WEST TEXAS

CITY           SKY/WX    TMP DP  RH WIND       PRES   REMARKS
ALBUQUERQUE    CLOUDY    80  43  26 W8        30.23F
EL PASO        MOSUNNY   84  51  31 VRB5      30.14F
$$


........................KEY........................
SKY/WX - SKY CONDITION/WEATHER
TMP    - TEMPERATURE IN FAHRENHEIT
DP     - DEW POINT IN FAHRENHEIT
RH     - RELATIVE HUMIDITY IN PERCENT
WIND   - DIRECTION AND SPEED IN MILES PER HOUR (MPH)
VRB    - VARIABLE WIND DIRECTION
PRES   - MEAN SEA LEVEL PRESSURE IN INCHES OF MERCURY
         F - FALLING PRESSURE   R - RISING PRESSURE
         S - STEADY PRESSURE
VSB    - VISIBILITY IN MILES
HX     - HEAT INDEX IN FAHRENHEIT
WCI    - WIND CHILL INDEX IN FAHRENHEIT
TC     - TEMPERATURE IN CELSIUS WHICH IS ALSO KNOWN AS
         TEMPERATURE IN CENTIGRADE
AFB    - AIR FORCE BASE
         LUKE AFB IS LUKE AIR FORCE BASE
         DAVIS-MONTHAN IS DAVIS-MONTHAN AIR FORCE BASE
NAS    - NAVAL AIR STATION
         EL CENTRO NAS IS EL CENTRO NAVAL AIR STATION
N/A    - NOT AVAILABLE





USA.gov is the U.S. government's official web portal to all federal, state and local government web resources and services.